When you browse on this site, cookies collect data to enhance your experience and personalize the content and advertising you see.
Visit our Privacy Policy to learn more. By continuing to use the site, you agree to this use of cookies and data.

Hourly Weather Shrewsbury

Today, 4 August, Tuesday

Time Temperature Precipitation Wind Pressure Humidity
00:00 +10°C° 0 mm 1 mps 757 mmHg 90%
01:00 +10°C° 0 mm 1 mps 757 mmHg 91%
02:00 +9°C° 0 mm 2 mps 757 mmHg 91%
03:00 +9°C° 0 mm 2 mps 757 mmHg 91%
04:00 +9°C° 0 mm 2 mps 756 mmHg 90%
05:00 +10°C° 0 mm 2 mps 756 mmHg 88%
06:00 +12°C° 0 mm 2 mps 755 mmHg 87%
07:00 +11°C° 0.1 mm 3 mps 755 mmHg 87%
08:00 +12°C° 0.1 mm 3 mps 755 mmHg 86%
09:00 +12°C° 0.1 mm 4 mps 755 mmHg 86%
10:00 +14°C° 0 mm 5 mps 755 mmHg 81%
11:00 +16°C° 0 mm 6 mps 754 mmHg 77%
12:00 +18°C° 0 mm 8 mps 754 mmHg 72%
13:00 +18°C° 0 mm 8 mps 753 mmHg 74%
14:00 +18°C° 0 mm 8 mps 753 mmHg 75%
15:00 +18°C° 0 mm 8 mps 752 mmHg 76%
16:00 +18°C° 0 mm 7 mps 752 mmHg 77%
17:00 +18°C° 0 mm 7 mps 752 mmHg 78%
18:00 +18°C° 0 mm 7 mps 751 mmHg 79%
19:00 +18°C° 0 mm 7 mps 751 mmHg 80%
20:00 +17°C° 0 mm 6 mps 751 mmHg 81%
21:00 +17°C° 0 mm 6 mps 752 mmHg 82%
22:00 +17°C° 0 mm 6 mps 751 mmHg 83%
23:00 +16°C° 0 mm 6 mps 751 mmHg 84%

Tomorrow, 5 August, Wednesday

Time Temperature Precipitation Wind Pressure Humidity
00:00 +16°C° 0 mm 6 mps 751 mmHg 85%
01:00 +16°C° 0 mm 6 mps 751 mmHg 86%
02:00 +15°C° 0 mm 6 mps 751 mmHg 87%
03:00 +15°C° 0 mm 6 mps 751 mmHg 88%
04:00 +15°C° 0 mm 5 mps 751 mmHg 87%
05:00 +16°C° 0 mm 5 mps 751 mmHg 85%
06:00 +16°C° 0 mm 5 mps 750 mmHg 84%
07:00 +17°C° 0 mm 6 mps 751 mmHg 80%
08:00 +20°C° 0 mm 6 mps 751 mmHg 77%
09:00 +21°C° 0 mm 7 mps 751 mmHg 74%
10:00 +21°C° 0 mm 7 mps 751 mmHg 72%
11:00 +22°C° 0 mm 7 mps 751 mmHg 70%
12:00 +22°C° 0 mm 7 mps 751 mmHg 69%
13:00 +23°C° 0 mm 7 mps 751 mmHg 68%
14:00 +23°C° 0 mm 7 mps 751 mmHg 67%
15:00 +23°C° 0 mm 7 mps 751 mmHg 66%
16:00 +22°C° 0.4 mm 6 mps 751 mmHg 74%
17:00 +20°C° 0.4 mm 5 mps 751 mmHg 82%
18:00 +19°C° 0.4 mm 4 mps 751 mmHg 90%
19:00 +19°C° 0.2 mm 4 mps 751 mmHg 92%
20:00 +18°C° 0.2 mm 4 mps 752 mmHg 93%
21:00 +18°C° 0.2 mm 4 mps 752 mmHg 94%
22:00 +18°C° 0 mm 4 mps 752 mmHg 95%
23:00 +18°C° 0 mm 3 mps 752 mmHg 95%

Day after tomorrow, 6 August, Thursday

Time Temperature Precipitation Wind Pressure Humidity
00:00 +17°C° 0 mm 3 mps 752 mmHg 96%
01:00 +17°C° 0 mm 3 mps 753 mmHg 96%
02:00 +17°C° 0 mm 2 mps 753 mmHg 97%
03:00 +17°C° 0 mm 2 mps 753 mmHg 97%
04:00 +17°C° 0 mm 2 mps 754 mmHg 97%
05:00 +18°C° 0 mm 2 mps 754 mmHg 96%
06:00 +18°C° 0 mm 2 mps 754 mmHg 96%
07:00 +19°C° 0.1 mm 2 mps 754 mmHg 93%
08:00 +20°C° 0.1 mm 3 mps 755 mmHg 90%
09:00 +21°C° 0.1 mm 3 mps 755 mmHg 86%
10:00 +21°C° 0.2 mm 4 mps 755 mmHg 83%
11:00 +22°C° 0.2 mm 4 mps 755 mmHg 80%
12:00 +23°C° 0.2 mm 5 mps 755 mmHg 76%
13:00 +23°C° 0.2 mm 5 mps 755 mmHg 76%
14:00 +25°C° 0.2 mm 4 mps 755 mmHg 75%
15:00 +25°C° 0.2 mm 4 mps 755 mmHg 75%
16:00 +23°C° 0.2 mm 4 mps 755 mmHg 76%
17:00 +24°C° 0.2 mm 3 mps 755 mmHg 77%
18:00 +24°C° 0.2 mm 3 mps 755 mmHg 79%
19:00 +21°C° 0 mm 2 mps 756 mmHg 82%
20:00 +20°C° 0 mm 2 mps 756 mmHg 86%
21:00 +18°C° 0 mm 2 mps 756 mmHg 89%
22:00 +18°C° 0 mm 1 mps 757 mmHg 90%
23:00 +18°C° 0 mm 1 mps 757 mmHg 90%

7 August, Friday

Time Temperature Precipitation Wind Pressure Humidity
00:00 +16°C° 0 mm 1 mps 757 mmHg 91%
01:00 +16°C° 0 mm 1 mps 757 mmHg 91%
02:00 +15°C° 0 mm 1 mps 757 mmHg 92%
03:00 +15°C° 0 mm 1 mps 757 mmHg 92%
04:00 +15°C° 0 mm 1 mps 757 mmHg 91%
05:00 +15°C° 0 mm 1 mps 757 mmHg 91%
06:00 +16°C° 0 mm 1 mps 758 mmHg 90%
07:00 +18°C° 0 mm 1 mps 758 mmHg 84%
08:00 +20°C° 0 mm 1 mps 758 mmHg 78%
09:00 +21°C° 0 mm 2 mps 758 mmHg 72%
10:00 +23°C° 0 mm 2 mps 758 mmHg 68%
11:00 +25°C° 0 mm 2 mps 757 mmHg 65%
12:00 +26°C° 0 mm 3 mps 757 mmHg 61%
13:00 +26°C° 0 mm 3 mps 757 mmHg 62%
14:00 +27°C° 0 mm 3 mps 757 mmHg 62%
15:00 +27°C° 0 mm 3 mps 757 mmHg 63%
16:00 +27°C° 0.1 mm 3 mps 757 mmHg 68%
17:00 +26°C° 0.1 mm 3 mps 757 mmHg 73%
18:00 +25°C° 0.1 mm 3 mps 757 mmHg 78%
19:00 +24°C° 0 mm 2 mps 757 mmHg 82%
20:00 +21°C° 0 mm 2 mps 757 mmHg 87%
21:00 +19°C° 0 mm 2 mps 757 mmHg 92%
22:00 +18°C° 0 mm 2 mps 757 mmHg 93%
23:00 +18°C° 0 mm 2 mps 758 mmHg 94%

8 August, Saturday

Time Temperature Precipitation Wind Pressure Humidity
00:00 +17°C° 0 mm 2 mps 758 mmHg 95%
01:00 +16°C° 0 mm 2 mps 758 mmHg 95%
02:00 +16°C° 0 mm 2 mps 758 mmHg 95%
03:00 +15°C° 0 mm 2 mps 758 mmHg 96%
04:00 +16°C° 0 mm 2 mps 758 mmHg 94%
05:00 +16°C° 0 mm 2 mps 759 mmHg 93%
06:00 +16°C° 0 mm 2 mps 759 mmHg 92%
07:00 +17°C° 0 mm 3 mps 759 mmHg 87%
08:00 +18°C° 0 mm 4 mps 760 mmHg 81%
09:00 +19°C° 0 mm 4 mps 760 mmHg 76%
10:00 +20°C° 0 mm 5 mps 760 mmHg 72%
11:00 +21°C° 0 mm 5 mps 760 mmHg 67%
12:00 +21°C° 0 mm 5 mps 760 mmHg 63%
13:00 +21°C° 0 mm 5 mps 761 mmHg 62%
14:00 +21°C° 0 mm 5 mps 761 mmHg 62%
15:00 +21°C° 0 mm 6 mps 761 mmHg 61%
16:00 +20°C° 0 mm 5 mps 761 mmHg 64%
17:00 +19°C° 0 mm 5 mps 761 mmHg 66%
18:00 +17°C° 0 mm 5 mps 761 mmHg 69%
19:00 +15°C° 0 mm 4 mps 762 mmHg 74%
20:00 +14°C° 0 mm 4 mps 762 mmHg 79%
21:00 +12°C° 0 mm 3 mps 762 mmHg 85%
22:00 +13°C° 0 mm 3 mps 762 mmHg 84%
23:00 +14°C° 0 mm 2 mps 763 mmHg 84%

9 August, Sunday

Time Temperature Precipitation Wind Pressure Humidity
00:00 +14°C° 0 mm 2 mps 763 mmHg 83%
01:00 +14°C° 0 mm 2 mps 763 mmHg 85%
02:00 +14°C° 0 mm 1 mps 763 mmHg 86%
03:00 +14°C° 0 mm 1 mps 762 mmHg 88%
04:00 +14°C° 0 mm 1 mps 763 mmHg 87%
05:00 +14°C° 0 mm 2 mps 763 mmHg 86%
06:00 +14°C° 0 mm 2 mps 763 mmHg 85%
07:00 +15°C° 0 mm 2 mps 763 mmHg 79%
08:00 +16°C° 0 mm 3 mps 763 mmHg 73%
09:00 +17°C° 0 mm 3 mps 763 mmHg 68%
10:00 +18°C° 0 mm 4 mps 762 mmHg 64%
11:00 +19°C° 0 mm 4 mps 762 mmHg 60%
12:00 +20°C° 0 mm 4 mps 762 mmHg 57%
13:00 +21°C° 0 mm 4 mps 762 mmHg 57%
14:00 +21°C° 0 mm 4 mps 761 mmHg 57%
15:00 +21°C° 0 mm 4 mps 761 mmHg 56%
16:00 +21°C° 0 mm 4 mps 761 mmHg 60%
17:00 +20°C° 0 mm 4 mps 761 mmHg 63%
18:00 +19°C° 0 mm 4 mps 761 mmHg 67%
19:00 +18°C° 0 mm 4 mps 761 mmHg 71%
20:00 +16°C° 0 mm 3 mps 761 mmHg 75%
21:00 +13°C° 0 mm 3 mps 761 mmHg 79%
22:00 +12°C° 0 mm 3 mps 761 mmHg 83%
23:00 +11°C° 0 mm 3 mps 760 mmHg 87%
Show more